Regional Weather Roundup
Issued by NWS

Home | Current Version | Previous Version | Graphics & Text | Print | Product List | Glossary On
Versions: 1 2 3 4 5 6 7 8 9 10 11 12 13 14 15 16 17 18 19 20 21 22 23 24 25 26 27 28 29 30 31 32 33 34 35 36 37 38 39 40 41 42 43 44 45 46 47 48 49 50
726
ASUS43 KMKX 061300
RWRWI

WISCONSIN REGIONAL WEATHER ROUNDUP
NATIONAL WEATHER SERVICE MILWAUKEE/SULLIVAN WI
700 AM CST SAT FEB 06 2016

NOTE: "FAIR" INDICATES FEW OR NO CLOUDS BELOW 12,000 FEET WITH NO
SIGNIFICANT WEATHER AND/OR OBSTRUCTIONS TO VISIBILITY.

WIZ001-002-006>008-014>016-023>028-061400-
NORTHWEST WISCONSIN

CITY           SKY/WX    TMP DP  RH WIND       PRES   REMARKS
SUPERIOR ARPT  PTCLDY    19  15  86 SW3       30.07F
ASHLAND        MOCLDY    21  17  84 SW6       30.08S WCI  13
HAYWARD        CLOUDY    23  18  81 SW6       30.07F WCI  16
SIREN          CLOUDY    24  20  86 SW10      30.10S WCI  13
CUMBERLAND     CLOUDY    23  21  93 SW8       30.08F WCI  14
RICE LAKE      CLOUDY    25  21  85 SW9       30.12F WCI  15
CHETEK         CLOUDY    24  21  87 SW3       30.12S
LADYSMITH      CLOUDY    24  22  94 SW6       30.12R FOG     WCI  16
EAU CLAIRE     CLOUDY    26  20  77 W7        30.13S WCI  18
MENOMONIE      CLOUDY    27  22  83 SW6       30.15R WCI  20
NEW RICHMOND   CLOUDY    24  20  85 SW6       30.13F WCI  17
OSCEOLA        CLOUDY    25  22  88 SW8       30.15F WCI  16
$$

WIZ003>005-009-010-017-018-061400-
NORTH CENTRAL WISCONSIN

CITY           SKY/WX    TMP DP  RH WIND       PRES   REMARKS
MANITOWISH WTR CLOUDY    20  19  97 SW6       30.03F WCI  12
ARBOR VITAE    CLOUDY    22  19  91 W8        30.05S WCI  12
WOODRUFF       CLOUDY    22  19  91 W8        30.05S WCI  12
RHINELANDER    CLOUDY    21  18  88 W9        30.06S WCI  11
EAGLE RIVER    CLOUDY    21  19  93 W7        30.04S WCI  12
LAND O LAKES   CLOUDY    21  19  92 SW5       30.03S WCI  15
PHILLIPS       CLOUDY    21  20  96 SW5       30.06S WCI  15
TOMAHAWK       CLOUDY    21  19  93 CALM      30.08S FOG
MEDFORD        CLOUDY    22  22  98 W9        30.08S FOG     WCI  12
MERRILL        CLOUDY    23  21  93 W8        30.10S WCI  14
$$

WIZ029-030-035-036-043>047-061400-
CENTRAL WISCONSIN

CITY           SKY/WX    TMP DP  RH WIND       PRES   REMARKS
WAUSAU         CLOUDY    24  21  88 W9        30.10S WCI  14
MOSINEE        CLOUDY    23  23 100 SW8       30.12F FOG     WCI  14
MARSHFIELD     CLOUDY    24  21  88 W8        30.11S FOG     WCI  15
STEVENS POINT  CLOUDY    23  20  91 W7        30.14S WCI  14
WAUPACA        CLOUDY    28  23  82 W8        30.17R WCI  20
WAUTOMA        NOT AVBL
WISC RAPIDS    CLOUDY    25  21  85 W7        30.16S WCI  17
CAMP DOUGLAS   CLOUDY    27  27 100 W7        30.16F WCI  19
$$

WIZ011>013-019>022-031-037>040-048>050-061400-
NORTHEAST WISCONSIN

CITY           SKY/WX    TMP DP  RH WIND       PRES   REMARKS
ANTIGO         CLOUDY    21  20  97 W12       30.08S FOG     WCI   9
SHAWANO        CLOUDY    27  22  84 W9        30.15S WCI  17
OCONTO         CLOUDY    25  22  88 W7        30.14S WCI  17
STURGEON BAY   CLOUDY    25  18  74 W12       30.16S WCI  14
GREEN BAY      CLOUDY    26  20  77 SW9       30.16S WCI  17
MANITOWOC      NOT AVBL
APPLETON       CLOUDY    27  19  74 SW10      30.14S WCI  17
CLINTONVILLE   CLOUDY    27  21  80 W9        30.15S WCI  17
OSHKOSH        CLOUDY    27  19  72 SW6       30.17S WCI  20
$$

WIZ032>034-041-042-053>061-061400-
SOUTHWEST WISCONSIN

CITY           SKY/WX    TMP DP  RH WIND       PRES   REMARKS
LA CROSSE      CLOUDY    28  23  81 SW7       30.18F WCI  21
SPARTA         CLOUDY    27  25  95 SW7       30.18F FOG     WCI  19
VIROQUA        CLOUDY    26  26 100 W10       30.17R WCI  16
BOSCOBEL       CLOUDY    29  25  85 SW7       30.22S WCI  22
PRAIRIE DU CHI CLOUDY    29  24  82 SW3       30.22F
PLATTEVILLE    CLOUDY    28  24  87 SW8       30.20F WCI  20
$$

WIZ056-057-062-063-064-067-068-061400-
SOUTH CENTRAL WISCONSIN

CITY           SKY/WX    TMP DP  RH WIND       PRES   REMARKS
REEDSBURG      CLOUDY    27  22  83 SW6       30.19S WCI  20
BARABOO/DELLS  CLOUDY    27  21  79 SW9       30.17F WCI  17
LONE ROCK      NOT AVBL
MINERAL POINT  CLOUDY    28  25  86 SW7       30.18F WCI  21
MADISON        CLOUDY    27  20  75 SW5       30.20S WCI  22
MIDDLETON      CLOUDY    28  22  78 SW6       30.20S WCI  22
WATERTOWN      CLOUDY    27  23  83 SW6       30.20S WCI  21
MONROE         CLOUDY    27  23  86 SW13      30.20F WCI  16
JANESVILLE     NOT AVBL
$$

WIZ051-052-058>065-066-070>072-061400-
SOUTHEAST WISCONSIN

CITY           SKY/WX    TMP DP  RH WIND       PRES   REMARKS
MILWAUKEE      MOCLDY    27  21  78 SW12      30.21S WCI  17
WAUKESHA       CLOUDY    27  21  80 SW3       30.21S
MILWAUKEE/TIMM CLOUDY    27  19  74 SW9       30.21S WCI  17
RACINE         MOCLDY    27  21  78 SW10      30.24S WCI  17
BURLINGTON     CLOUDY    24  21  87 SW6       30.22S WCI  17
KENOSHA        MOCLDY    25  21  85 SW8       30.23S WCI  16
FOND DU LAC    CLOUDY    28  19  69 SW9       30.18S WCI  19
SHEBOYGAN      CLOUDY    28  19  69 W13       30.18R WCI  17
WEST BEND      CLOUDY    28  21  74 SW7       30.18S WCI  21
JUNEAU         CLOUDY    26  21  80 SW10      30.20S WCI  17
$$

LSZ147-162-061400-
LAKE SUPERIOR

STATION/POSITION TIME  TEMP    WIND        PRES    WAVE
                       AIR SEA DIR/SP/G            HT/PER
                 (UTC) (F)     (DEG/KT/KT) (MB)    (FT/S)
DEVILS ISLAND    1200   28     250/ 19/ 22 1018.3F
PORT WING        1110   24     190/  6/  9   N/A
SAXON HARBOR     1200   24                 1017.9
$$

LMZ867-665-643>646-061400-
LAKE MICHIGAN

STATION/POSITION TIME  TEMP    WIND        PRES    WAVE
                       AIR SEA DIR/SP/G            HT/PER
                 (UTC) (F)     (DEG/KT/KT) (MB)    (FT/S)
CHAMBERS ISLAND  1200   26     220/  6/ 13 1020.0F
ALGOMA LAKESHORE 1211          270/ 12/ 19   N/A
KEWAUNEE LAKESHO 1200   27     260/ 12/ 18 1020.2R
SHEBOYGAN LAKESH 1200   29     230/  9/ 12 1023.2S
PORT WASHINGTON  1240   29     250/  6/ 10 1023.4S
MILWAUKEE LAKESH 1210   28     240/ 11/ 13   N/A
KENOSHA   LAKESH 1200   27     210/  7/ 10 1023.7F
$$

TC  - TEMPERATURE IN CELSIUS
VSB - VISIBILITY IN STATUTE MILES
WCI - WIND CHILL INDEX
HX  - HEAT INDEX





USA.gov is the U.S. government's official web portal to all federal, state and local government web resources and services.